Terminal Aerodrome Forecast
Issued by NWS

Home | Current Version | Previous Version | Text Only | Print | Product List | Glossary On
Versions: 1 2 3 4 5 6 7 8 9 10 11 12 13 14 15 16 17 18 19 20 21 22 23 24 25 26 27 28 29
000
FTUS46 KSGX 171100
TAFSAN
TAF
KSAN 171126Z 1712/1818 19006KT P6SM OVC018
     FM171900 21008KT P6SM SCT020 SCT200
     FM180100 VRB04KT P6SM OVC020=

USA.gov is the U.S. government's official web portal to all federal, state and local government web resources and services.